Regional Weather Roundup
Issued by NWS

Home | Current Version | Previous Version | Graphics & Text | Print | Product List | Glossary On
Versions: 1 2 3 4 5 6 7 8 9 10 11 12 13 14 15 16 17 18 19 20 21 22 23 24 25 26 27 28 29 30 31 32 33 34 35 36 37 38 39 40 41 42 43 44 45 46 47 48 49 50
573
ASUS44 KJAN 230110
RWRMS

MISSISSIPPI HOURLY WEATHER ROUNDUP
NATIONAL WEATHER SERVICE JACKSON MS
700 PM CST MON DEC 22 2014

NOTE: "FAIR: INDICATES FEW OR NO CLOUDS BELOW 12,000 FEET WITH NO
SIGNIFICANT WEATHER AND/OR OBSTRUCTIONS TO VISIBILITY.

MSZ001>002-007>008-010>013-018>021-025>028-034>036-230200-
NORTHWEST MISSISSIPPI

CITY           SKY/WX    TMP DP  RH WIND       PRES   REMARKS
CLARKSDALE     CLOUDY    59  59 100 S7        29.63S
CLEVELAND      CLOUDY    59  59  99 S8        29.63R
GREENWOOD      CLOUDY    61  58  90 S9        29.66R
GREENVILLE     CLOUDY    61  58  90 SE9       29.63R
GRENADA        CLOUDY    57  55  94 CALM      29.67S
OLIVE BRANCH   CLOUDY    54  54 100 SE10      29.64R
OXFORD         CLOUDY    54  54 100 SE9       29.68S FOG
TUNICA         LGT RAIN  57  55  94 S5        29.63S
$$

MSZ003>006-009-014>017-022>024-029>033-037>039-230200-
NORTHEAST MISSISSIPPI

CITY           SKY/WX    TMP DP  RH WIND       PRES   REMARKS
COLUMBUS AFB   CLOUDY    56  56 100 S14       29.72R
CORINTH        CLOUDY    55  54  94 S7        29.68R FOG
STARKVILLE     FOG       55  54  94 SE7       29.71R VSB 3/4
TUPELO         CLOUDY    55  53  93 S12       29.69S FOG
$$

MSZ040-058-230200-
CENTRAL MISSISSIPPI

CITY           SKY/WX    TMP DP  RH WIND       PRES   REMARKS
JACKSON INTL   CLOUDY    62  60  93 CALM      29.68R FOG
JACKSON HAWKNS CLOUDY    61  60  97 SE6       29.67R FOG
MERIDIAN KEY   CLOUDY    62  61  96 S6        29.73R
MERIDIAN NAS   FOG       59  59 100 SE6       29.74R VSB 1
RAYMOND        FAIR      63  57  82 E5        29.67R HAZE
VICKSBURG      PTCLDY    62  58  86 SE9       29.65R
$$

MSZ059>079-230200-
SOUTH MISSISSIPPI

CITY           SKY/WX    TMP DP  RH WIND       PRES   REMARKS
HATTIESBURG    MOCLDY    69  66  90 S9        29.72R
MCCOMB         PTCLDY    67  61  81 S10       29.69R
NATCHEZ        CLOUDY    68  61  77 S7        29.66S
PINE BELT      MOCLDY    64  63  94 S8        29.72R
$$

MSZ080>082-230200-
COASTAL MISSISSIPPI

CITY           SKY/WX    TMP DP  RH WIND       PRES   REMARKS
BAY ST LOUIS   CLOUDY    70  64  83 SW8       29.74R
BILOXI         MOCLDY    64  64 100 SW12      29.75R
PASCAGOULA     CLEAR     68  65  90 VRB7G17   29.75S
GULFPORT       CLOUDY    67  65  93 S13G20    29.74R
$$



USA.gov is the U.S. government's official web portal to all federal, state and local government web resources and services.